GW5440 Weather Reports


time (UTC)temp
C
wind
direction
speed
KPH
gust
KPH
rain 1hr
cm
rain 24hr
cm
rain mn
cm
humidity
%
barometer
mb
20260508213359 24 306 3.2 12.9 0.00 0.00 0.00 23 1014.3
20260508213159 24 351 4.8 12.9 0.00 0.00 0.00 23 1014.4
20260508212759 25 325 4.8 12.9 0.00 0.00 0.00 21 1014.4
20260508212559 25 306 6.4 12.9 0.00 0.00 0.00 22 1014.5
20260508212359 25 248 1.6 6.4 0.00 0.00 0.00 22 1014.4
20260508212159 24 215 3.2 6.4 0.00 0.00 0.00 23 1014.5
20260508211800 23 24 3.2 11.3 0.00 0.00 0.00 23 1014.5
20260508211559 23 300 4.8 11.3 0.00 0.00 0.00 21 1014.5
20260508211359 23 343 3.2 14.5 0.00 0.00 0.00 23 1014.5
20260508211159 24 281 6.4 14.5 0.00 0.00 0.00 21 1014.5
20260508210759 23 315 8.0 16.1 0.00 0.00 0.00 23 1014.5
20260508210559 23 292 4.8 16.1 0.00 0.00 0.00 24 1014.6
20260508210000 24 334 4.8 14.5 0.00 0.00 0.00 24 1014.6
20260508205758 24 317 4.8 14.5 0.00 0.00 0.00 23 1014.6
20260508205559 24 317 3.2 9.7 0.00 0.00 0.00 23 1014.7
20260508205159 24 207 4.8 16.1 0.00 0.00 0.00 23 1014.7
20260508204559 24 284 6.4 16.1 0.00 0.00 0.00 22 1014.8
20260508204359 24 265 4.8 17.7 0.00 0.00 0.00 25 1014.8
20260508204200 23 230 4.8 17.7 0.00 0.00 0.00 24 1014.7
20260508203959 23 329 3.2 17.7 0.00 0.00 0.00 24 1014.8
20260508203759 23 335 8.0 17.7 0.00 0.00 0.00 21 1014.8
20260508203600 24 309 6.4 17.7 0.00 0.00 0.00 22 1014.8
20260508203400 24 261 3.2 17.7 0.00 0.00 0.00 23 1014.8
20260508203200 23 266 3.2 17.7 0.00 0.00 0.00 23 1014.8
20260508202959 23 284 6.4 17.7 0.00 0.00 0.00 22 1014.9
20260508202759 23 244 12.9 17.7 0.00 0.00 0.00 23 1014.8
20260508202559 23 329 6.4 12.9 0.00 0.00 0.00 22 1014.8
20260508202359 23 338 4.8 12.9 0.00 0.00 0.00 21 1014.8
20260508202159 23 329 4.8 12.9 0.00 0.00 0.00 23 1014.8
20260508201959 23 273 3.2 12.9 0.00 0.00 0.00 23 1014.9
20260508201759 23 301 4.8 12.9 0.00 0.00 0.00 23 1014.9
20260508201400 23 263 4.8 12.9 0.00 0.00 0.00 25 1014.9
20260508201159 23 329 1.6 9.7 0.00 0.00 0.00 26 1014.8
20260508201000 23 315 1.6 9.7 0.00 0.00 0.00 24 1014.9
20260508200559 23 325 6.4 9.7 0.00 0.00 0.00 25 1014.9
20260508200400 23 271 3.2 11.3 0.00 0.00 0.00 26 1014.9
20260508200200 23 327 3.2 11.3 0.00 0.00 0.00 26 1014.9
20260508200000 23 289 4.8 11.3 0.00 0.00 0.00 26 1014.9
20260508195759 23 300 4.8 11.3 0.00 0.00 0.00 26 1014.9
20260508195600 23 190 3.2 11.3 0.00 0.00 0.00 25 1014.9
20260508195400 23 219 6.4 11.3 0.00 0.00 0.00 26 1014.9
20260508195200 22 319 4.8 12.9 0.00 0.00 0.00 24 1015.0
20260508194759 23 329 6.4 12.9 0.00 0.00 0.00 26 1014.9
20260508194600 23 323 6.4 12.9 0.00 0.00 0.00 26 1015.0
20260508194400 23 303 4.8 12.9 0.00 0.00 0.00 26 1014.9
20260508194200 22 323 3.2 12.9 0.00 0.00 0.00 27 1015.0
20260508193959 22 299 4.8 16.1 0.00 0.00 0.00 28 1014.9
20260508193759 23 298 4.8 16.1 0.00 0.00 0.00 26 1015.1
20260508193559 23 286 6.4 16.1 0.00 0.00 0.00 25 1015.0
20260508193359 23 355 6.4 16.1 0.00 0.00 0.00 27 1015.0
20260508192959 23 338 6.4 12.9 0.00 0.00 0.00 30 1015.0
20260508192811 22 268 6.4 14.5 0.00 0.00 0.00 27 1015.1
20260508192359 22 308 6.4 14.5 0.00 0.00 0.00 27 1015.1
20260508192159 22 292 6.4 16.1 0.00 0.00 0.00 27 1015.1
20260508191959 22 341 4.8 16.1 0.00 0.00 0.00 30 1015.1
20260508191759 22 340 8.0 16.1 0.00 0.00 0.00 27 1015.1
20260508191600 22 290 9.7 16.1 0.00 0.00 0.00 28 1015.2
20260508191359 22 282 6.4 14.5 0.00 0.00 0.00 29 1015.2
20260508191159 22 262 4.8 16.1 0.00 0.00 0.00 29 1015.2
20260508190959 22 295 6.4 16.1 0.00 0.00 0.00 27 1015.2
20260508190759 22 268 6.4 16.1 0.00 0.00 0.00 27 1015.2
20260508190559 23 296 4.8 16.1 0.00 0.00 0.00 28 1015.2
20260508190159 22 236 1.6 14.5 0.00 0.00 0.00 28 1015.3
20260508190001 22 287 6.4 14.5 0.00 0.00 0.00 27 1015.3
20260508185800 22 280 3.2 17.7 0.00 0.00 0.00 28 1015.2
20260508185600 22 286 3.2 17.7 0.00 0.00 0.00 29 1015.2
20260508185359 22 360 6.4 17.7 0.00 0.00 0.00 27 1015.3
20260508185159 22 285 4.8 17.7 0.00 0.00 0.00 27 1015.3
20260508184759 22 225 4.8 16.1 0.00 0.00 0.00 27 1015.4
20260508184559 22 292 6.4 16.1 0.00 0.00 0.00 28 1015.4
20260508184359 22 317 4.8 12.9 0.00 0.00 0.00 30 1015.5
20260508184200 22 265 1.6 12.9 0.00 0.00 0.00 30 1015.4
20260508184000 22 292 3.2 12.9 0.00 0.00 0.00 29 1015.5
20260508183600 23 260 4.8 12.9 0.00 0.00 0.00 27 1015.5
20260508183400 22 272 3.2 12.9 0.00 0.00 0.00 28 1015.5
20260508183200 22 293 4.8 12.9 0.00 0.00 0.00 30 1015.5
20260508183000 22 298 4.8 12.9 0.00 0.00 0.00 30 1015.5
20260508182559 22 244 1.6 12.9 0.00 0.00 0.00 29 1015.5
20260508182400 21 257 6.4 12.9 0.00 0.00 0.00 31 1015.6
20260508182159 21 319 4.8 12.9 0.00 0.00 0.00 31 1015.5
20260508181959 22 325 4.8 12.9 0.00 0.00 0.00 31 1015.6
20260508181759 22 300 3.2 9.7 0.00 0.00 0.00 32 1015.6
20260508181358 21 246 1.6 9.7 0.00 0.00 0.00 31 1015.6
20260508180959 22 188 3.2 9.7 0.00 0.00 0.00 32 1015.7
20260508180800 21 292 3.2 9.7 0.00 0.00 0.00 33 1015.7
20260508180600 21 323 4.8 9.7 0.00 0.00 0.00 33 1015.7
20260508180400 21 328 3.2 8.0 0.00 0.00 0.00 31 1015.7
20260508180200 21 229 0.0 8.0 0.00 0.00 0.00 32 1015.7
20260508175959 21 229 1.6 8.0 0.00 0.00 0.00 32 1015.8
20260508175759 22 229 1.6 8.0 0.00 0.00 0.00 30 1015.8
20260508175359 22 292 3.2 11.3 0.00 0.00 0.00 33 1015.8
20260508175159 21 266 1.6 11.3 0.00 0.00 0.00 33 1015.9
20260508174959 21 262 3.2 11.3 0.00 0.00 0.00 33 1015.9
20260508174759 21 273 3.2 11.3 0.00 0.00 0.00 36 1015.9
20260508174559 21 273 3.2 8.0 0.00 0.00 0.00 35 1015.9
20260508174359 21 211 3.2 8.0 0.00 0.00 0.00 32 1015.9
20260508174000 21 200 4.8 14.5 0.00 0.00 0.00 35 1015.9
20260508173759 21 300 3.2 14.5 0.00 0.00 0.00 37 1015.9
20260508173600 21 277 4.8 14.5 0.00 0.00 0.00 36 1015.9
20260508173200 21 217 3.2 8.0 0.00 0.00 0.00 38 1015.9
20260508173000 21 196 4.8 9.7 0.00 0.00 0.00 36 1016.0
20260508172558 21 280 4.8 9.7 0.00 0.00 0.00 35 1015.9
20260508172359 21 335 1.6 9.7 0.00 0.00 0.00 37 1015.9
20260508171759 21 281 1.6 8.0 0.00 0.00 0.00 37 1015.9
20260508171400 22 263 1.6 8.0 0.00 0.00 0.00 39 1015.9
20260508171159 22 283 1.6 8.0 0.00 0.00 0.00 39 1015.9
20260508170959 22 257 1.6 8.0 0.00 0.00 0.00 37 1015.9
20260508170759 21 270 1.6 9.7 0.00 0.00 0.00 36 1015.9
20260508170559 21 199 1.6 9.7 0.00 0.00 0.00 39 1015.9
20260508170001 20 197 3.2 11.3 0.00 0.00 0.00 41 1015.8
20260508165800 20 293 4.8 11.3 0.00 0.00 0.00 41 1015.8
20260508165559 21 269 4.8 11.3 0.00 0.00 0.00 43 1015.8
20260508165359 21 273 4.8 11.3 0.00 0.00 0.00 41 1015.8
20260508165159 21 288 1.6 11.3 0.00 0.00 0.00 40 1015.8
20260508164959 21 206 3.2 11.3 0.00 0.00 0.00 37 1015.8
20260508164759 21 295 3.2 11.3 0.00 0.00 0.00 39 1015.9
20260508164558 21 242 3.2 8.0 0.00 0.00 0.00 37 1015.8
20260508164359 21 163 3.2 8.0 0.00 0.00 0.00 39 1015.7
20260508164159 21 161 4.8 8.0 0.00 0.00 0.00 38 1015.7
20260508163959 21 167 3.2 9.7 0.00 0.00 0.00 36 1015.7
20260508163759 21 252 1.6 4.8 0.00 0.00 0.00 37 1015.8
20260508163559 20 157 1.6 8.0 0.00 0.00 0.00 36 1015.7
20260508163359 20 157 1.6 8.0 0.00 0.00 0.00 39 1015.7
20260508162959 20 157 3.2 8.0 0.00 0.00 0.00 38 1015.7
20260508162759 21 154 3.2 8.0 0.00 0.00 0.00 39 1015.7
20260508162400 20 152 1.6 3.2 0.00 0.00 0.00 44 1015.7
20260508162200 20 151 1.6 3.2 0.00 0.00 0.00 42 1015.7
20260508162000 20 151 0.0 4.8 0.00 0.00 0.00 44 1015.7
20260508161559 20 153 1.6 4.8 0.00 0.00 0.00 42 1015.7
20260508161159 20 153 3.2 8.0 0.00 0.00 0.00 41 1015.8
20260508160759 19 153 3.2 8.0 0.00 0.00 0.00 42 1015.7
20260508160600 20 153 1.6 8.0 0.00 0.00 0.00 42 1015.7
20260508160400 20 153 3.2 8.0 0.00 0.00 0.00 43 1015.7
20260508160159 19 152 3.2 4.8 0.00 0.00 0.00 41 1015.7
20260508160001 20 152 3.2 4.8 0.00 0.00 0.00 44 1015.7
20260508155759 20 153 1.6 4.8 0.00 0.00 0.00 44 1015.7
20260508155559 19 153 3.2 8.0 0.00 0.00 0.00 44 1015.8
20260508155200 19 163 1.6 8.0 0.00 0.00 0.00 46 1015.7
20260508154959 19 166 1.6 8.0 0.00 0.00 0.00 47 1015.7
20260508154559 18 163 1.6 4.8 0.00 0.00 0.00 47 1015.6
20260508154400 18 164 3.2 4.8 0.00 0.00 0.00 46 1015.7
20260508154203 18 163 1.6 4.8 0.00 0.00 0.00 45 1015.7
20260508153959 18 164 1.6 4.8 0.00 0.00 0.00 46 1015.7
20260508153759 18 166 1.6 4.8 0.00 0.00 0.00 47 1015.7
20260508153559 18 167 1.6 4.8 0.00 0.00 0.00 47 1015.7
20260508153400 18 169 3.2 6.4 0.00 0.00 0.00 48 1015.7
20260508153159 18 170 1.6 6.4 0.00 0.00 0.00 47 1015.7
20260508152959 18 170 1.6 4.8 0.00 0.00 0.00 48 1015.6
20260508152600 18 171 0.0 3.2 0.00 0.00 0.00 48 1015.7
20260508152359 18 172 1.6 3.2 0.00 0.00 0.00 48 1015.6
20260508152200 18 171 1.6 3.2 0.00 0.00 0.00 47 1015.6
20260508151759 18 173 0.0 1.6 0.00 0.00 0.00 48 1015.6
20260508151559 18 159 0.0 3.2 0.00 0.00 0.00 47 1015.6
20260508151359 17 158 0.0 3.2 0.00 0.00 0.00 48 1015.5
20260508151159 17 158 0.0 3.2 0.00 0.00 0.00 47 1015.6
20260508150759 17 158 0.0 3.2 0.00 0.00 0.00 47 1015.6
20260508150359 17 159 1.6 3.2 0.00 0.00 0.00 48 1015.5
20260508150159 17 161 0.0 3.2 0.00 0.00 0.00 50 1015.5
20260508150001 17 163 0.0 3.2 0.00 0.00 0.00 50 1015.5
20260508145759 16 164 0.0 3.2 0.00 0.00 0.00 48 1015.5
20260508145559 16 163 1.6 3.2 0.00 0.00 0.00 49 1015.5
20260508145400 16 163 0.0 1.6 0.00 0.00 0.00 49 1015.5
20260508145159 16 163 0.0 3.2 0.00 0.00 0.00 48 1015.5
20260508144959 16 163 1.6 3.2 0.00 0.00 0.00 48 1015.5
20260508144759 16 163 0.0 3.2 0.00 0.00 0.00 49 1015.4
20260508144559 16 162 1.6 3.2 0.00 0.00 0.00 49 1015.4
20260508144400 16 163 1.6 3.2 0.00 0.00 0.00 48 1015.5
20260508144200 16 162 1.6 3.2 0.00 0.00 0.00 48 1015.4
20260508144000 16 162 1.6 3.2 0.00 0.00 0.00 48 1015.4
20260508143559 16 163 0.0 1.6 0.00 0.00 0.00 48 1015.4
20260508143359 16 163 0.0 3.2 0.00 0.00 0.00 48 1015.4
20260508143159 16 163 0.0 3.2 0.00 0.00 0.00 47 1015.3
20260508142959 16 163 1.6 3.2 0.00 0.00 0.00 47 1015.3
20260508142759 16 163 1.6 3.2 0.00 0.00 0.00 47 1015.3
20260508142600 16 163 0.0 0.0 0.00 0.00 0.00 47 1015.3
20260508142359 16 163 0.0 0.0 0.00 0.00 0.00 47 1015.4
20260508141959 16 165 0.0 0.0 0.00 0.00 0.00 47 1015.3
20260508141759 16 163 0.0 0.0 0.00 0.00 0.00 46 1015.2
20260508141559 16 163 0.0 0.0 0.00 0.00 0.00 46 1015.2
20260508141400 16 164 0.0 0.0 0.00 0.00 0.00 46 1015.3
20260508141159 16 166 0.0 1.6 0.00 0.00 0.00 47 1015.3
20260508140959 16 167 0.0 1.6 0.00 0.00 0.00 47 1015.2
20260508140758 16 166 0.0 1.6 0.00 0.00 0.00 46 1015.2
20260508140559 16 166 0.0 1.6 0.00 0.00 0.00 46 1015.2
20260508140400 16 166 0.0 0.0 0.00 0.00 0.00 47 1015.1
20260508140200 15 166 0.0 0.0 0.00 0.00 0.00 47 1015.1
20260508140001 15 166 0.0 3.2 0.00 0.00 0.00 48 1015.0
20260508135759 15 166 0.0 3.2 0.00 0.00 0.00 48 1015.1
20260508135559 15 167 0.0 3.2 0.00 0.00 0.00 49 1015.1
20260508135359 15 167 0.0 3.2 0.00 0.00 0.00 48 1015.1
20260508135159 15 167 1.6 3.2 0.00 0.00 0.00 48 1015.0
20260508134959 15 168 0.0 0.0 0.00 0.00 0.00 49 1015.1
20260508134759 14 168 0.0 0.0 0.00 0.00 0.00 49 1015.1
20260508134559 14 169 0.0 0.0 0.00 0.00 0.00 49 1015.0
20260508134358 14 170 0.0 0.0 0.00 0.00 0.00 49 1015.0
20260508134200 13 170 0.0 0.0 0.00 0.00 0.00 49 1014.9
20260508134000 13 170 0.0 0.0 0.00 0.00 0.00 51 1014.9
20260508133759 13 360 0.0 0.0 0.00 0.00 0.00 51 1014.9
20260508133559 13 360 0.0 0.0 0.00 0.00 0.00 52 1014.9
20260508133359 13 360 0.0 0.0 0.00 0.00 0.00 52 1014.8
20260508133200 12 360 0.0 0.0 0.00 0.00 0.00 54 1014.8
20260508133000 12 360 0.0 0.0 0.00 0.00 0.00 54 1014.8
20260508132759 12 360 0.0 0.0 0.00 0.00 0.00 55 1014.8
20260508132559 12 149 0.0 0.0 0.00 0.00 0.00 55 1014.7
20260508132400 11 148 0.0 0.0 0.00 0.00 0.00 56 1014.7
20260508132159 11 180 0.0 0.0 0.00 0.00 0.00 57 1014.8
20260508131759 11 360 0.0 0.0 0.00 0.00 0.00 57 1014.7
20260508131600 10 360 0.0 0.0 0.00 0.00 0.00 57 1014.7
20260508131359 10 360 0.0 0.0 0.00 0.00 0.00 59 1014.7
20260508130959 10 360 0.0 0.0 0.00 0.00 0.00 60 1014.6
20260508130800 10 172 0.0 0.0 0.00 0.00 0.00 59 1014.5
20260508130559 10 360 0.0 0.0 0.00 0.00 0.00 60 1014.6
20260508130359 10 165 0.0 0.0 0.00 0.00 0.00 59 1014.5
20260508130000 10 166 0.0 0.0 0.00 0.00 0.00 60 1014.4
20260508125600 10 166 0.0 0.0 0.00 0.00 0.00 59 1014.4
20260508125359 10 165 0.0 0.0 0.00 0.00 0.00 59 1014.5
20260508125000 10 165 0.0 0.0 0.00 0.00 0.00 60 1014.3
20260508124800 10 164 0.0 0.0 0.00 0.00 0.00 59 1014.3
20260508124558 10 168 0.0 0.0 0.00 0.00 0.00 59 1014.3
20260508124400 10 166 0.0 0.0 0.00 0.00 0.00 59 1014.3
20260508124200 10 167 0.0 0.0 0.00 0.00 0.00 60 1014.3
20260508123959 10 165 0.0 0.0 0.00 0.00 0.00 60 1014.3
20260508123759 10 164 0.0 0.0 0.00 0.00 0.00 60 1014.2
20260508123559 10 164 0.0 0.0 0.00 0.00 0.00 61 1014.2
20260508123359 10 163 0.0 0.0 0.00 0.00 0.00 61 1014.1
20260508123159 10 163 0.0 0.0 0.00 0.00 0.00 61 1014.1
20260508122959 10 163 0.0 0.0 0.00 0.00 0.00 61 1014.1
20260508122759 10 163 0.0 0.0 0.00 0.00 0.00 61 1014.1
20260508122559 10 163 0.0 0.0 0.00 0.00 0.00 61 1014.0
20260508122359 10 163 0.0 0.0 0.00 0.00 0.00 61 1014.0
20260508122159 10 165 0.0 0.0 0.00 0.00 0.00 61 1014.0
20260508122000 10 163 0.0 0.0 0.00 0.00 0.00 61 1014.0
20260508121759 10 164 0.0 0.0 0.00 0.00 0.00 60 1014.0
20260508121558 10 164 0.0 0.0 0.00 0.00 0.00 60 1014.0
20260508121358 10 164 0.0 0.0 0.00 0.00 0.00 60 1013.9
20260508121200 10 165 0.0 0.0 0.00 0.00 0.00 60 1014.0
20260508121000 10 163 0.0 0.0 0.00 0.00 0.00 60 1013.9
20260508120758 10 163 0.0 0.0 0.00 0.00 0.00 59 1013.9
20260508120559 10 160 0.0 0.0 0.00 0.00 0.00 59 1013.9
20260508120358 10 161 0.0 0.0 0.00 0.00 0.00 59 1013.8
20260508120159 10 159 0.0 0.0 0.00 0.00 0.00 59 1013.8
20260508120000 10 158 0.0 0.0 0.00 0.00 0.00 59 1013.8
20260508115800 10 157 0.0 0.0 0.00 0.00 0.00 58 1013.7
20260508115359 10 155 0.0 0.0 0.00 0.00 0.00 58 1013.7
20260508115159 10 155 0.0 0.0 0.00 0.00 0.00 58 1013.7
20260508114959 10 155 0.0 0.0 0.00 0.00 0.00 58 1013.7
20260508114800 10 154 0.0 0.0 0.00 0.00 0.00 58 1013.7
20260508114558 10 154 0.0 0.0 0.00 0.00 0.00 58 1013.7
20260508114359 10 153 0.0 0.0 0.00 0.00 0.00 58 1013.8
20260508114159 10 153 0.0 0.0 0.00 0.00 0.00 57 1013.7
20260508113958 10 153 0.0 0.0 0.00 0.00 0.00 58 1013.7
20260508113759 10 153 0.0 0.0 0.00 0.00 0.00 58 1013.6
20260508113558 10 153 0.0 0.0 0.00 0.00 0.00 57 1013.6
20260508113357 10 153 0.0 0.0 0.00 0.00 0.00 57 1013.7
20260508113158 11 153 0.0 0.0 0.00 0.00 0.00 57 1013.7
20260508112958 11 153 0.0 0.0 0.00 0.00 0.00 57 1013.6
20260508112758 11 153 0.0 0.0 0.00 0.00 0.00 57 1013.6
20260508112558 11 153 0.0 0.0 0.00 0.00 0.00 57 1013.7
20260508112358 11 153 0.0 0.0 0.00 0.00 0.00 56 1013.7
20260508112157 11 153 0.0 0.0 0.00 0.00 0.00 55 1013.6
20260508111959 11 153 0.0 0.0 0.00 0.00 0.00 56 1013.7
20260508111758 11 153 0.0 0.0 0.00 0.00 0.00 56 1013.6
20260508111558 11 153 0.0 0.0 0.00 0.00 0.00 56 1013.6
20260508111358 11 153 0.0 0.0 0.00 0.00 0.00 56 1013.6
20260508110959 11 153 0.0 0.0 0.00 0.00 0.00 56 1013.7
20260508110558 11 153 0.0 0.0 0.00 0.00 0.00 57 1013.6
20260508110358 11 153 0.0 0.0 0.00 0.00 0.00 56 1013.6
20260508110158 11 153 0.0 0.0 0.00 0.00 0.00 57 1013.6
20260508110000 11 153 0.0 0.0 0.00 0.00 0.00 57 1013.6
20260508105759 11 153 0.0 0.0 0.00 0.00 0.00 57 1013.6
20260508105359 11 153 0.0 0.0 0.00 0.00 0.00 57 1013.5
20260508105000 11 153 0.0 0.0 0.00 0.00 0.00 57 1013.5
20260508104558 11 153 0.0 0.0 0.00 0.00 0.00 57 1013.6
20260508104359 11 153 0.0 0.0 0.00 0.00 0.00 57 1013.5
20260508104159 11 153 0.0 0.0 0.00 0.00 0.00 56 1013.5
20260508103958 11 153 0.0 0.0 0.00 0.00 0.00 56 1013.5
20260508103800 11 153 0.0 0.0 0.00 0.00 0.00 55 1013.5
20260508103558 11 153 0.0 0.0 0.00 0.00 0.00 56 1013.5
20260508103400 11 153 0.0 0.0 0.00 0.00 0.00 56 1013.4
20260508103200 11 153 0.0 0.0 0.00 0.00 0.00 55 1013.4
20260508102959 11 153 0.0 0.0 0.00 0.00 0.00 55 1013.4
20260508102759 11 153 0.0 0.0 0.00 0.00 0.00 55 1013.4
20260508102359 11 153 0.0 0.0 0.00 0.00 0.00 54 1013.4
20260508101800 11 153 0.0 0.0 0.00 0.00 0.00 53 1013.4
20260508101558 11 153 0.0 0.0 0.00 0.00 0.00 53 1013.4
20260508101400 11 153 0.0 0.0 0.00 0.00 0.00 53 1013.4
20260508101000 11 153 0.0 0.0 0.00 0.00 0.00 53 1013.4
20260508100759 11 153 0.0 0.0 0.00 0.00 0.00 53 1013.5
20260508100559 11 153 0.0 0.0 0.00 0.00 0.00 53 1013.4
20260508100359 11 153 0.0 0.0 0.00 0.00 0.00 53 1013.4
20260508100159 11 153 0.0 0.0 0.00 0.00 0.00 53 1013.4
20260508100003 11 153 0.0 0.0 0.00 0.00 0.00 54 1013.3
20260508095802 11 153 0.0 0.0 0.00 0.00 0.00 54 1013.3
20260508095559 11 153 0.0 0.0 0.00 0.00 0.00 55 1013.3
20260508095014 11 153 0.0 1.6 0.00 0.00 0.00 55 1013.4
20260508094804 11 153 0.0 1.6 0.00 0.00 0.00 57 1013.4
20260508094606 11 153 0.0 1.6 0.00 0.00 0.00 57 1013.3
20260508094403 11 153 0.0 1.6 0.00 0.00 0.00 57 1013.3
20260508094004 11 153 0.0 1.6 0.00 0.00 0.00 57 1013.4
20260508093759 11 153 0.0 1.6 0.00 0.00 0.00 57 1013.4
20260508093558 11 153 0.0 1.6 0.00 0.00 0.00 57 1013.4
20260508093359 11 153 0.0 1.6 0.00 0.00 0.00 57 1013.4
20260508093200 11 153 0.0 1.6 0.00 0.00 0.00 56 1013.4
20260508092959 11 153 0.0 3.2 0.00 0.00 0.00 56 1013.4
20260508092759 11 153 0.0 3.2 0.00 0.00 0.00 56 1013.3
20260508092559 11 153 0.0 3.2 0.00 0.00 0.00 56 1013.3
20260508092200 11 153 1.6 3.2 0.00 0.00 0.00 56 1013.2
20260508091559 11 153 0.0 0.0 0.00 0.00 0.00 56 1013.2
20260508091159 11 153 0.0 0.0 0.00 0.00 0.00 55 1013.2
20260508091000 11 153 0.0 0.0 0.00 0.00 0.00 55 1013.2
20260508090800 11 153 0.0 0.0 0.00 0.00 0.00 55 1013.2
20260508090559 11 153 0.0 0.0 0.00 0.00 0.00 55 1013.2
20260508085959 12 153 0.0 3.2 0.00 0.00 0.00 55 1013.2
20260508085757 12 153 0.0 4.8 0.00 0.00 0.00 55 1013.2
20260508085558 12 153 0.0 4.8 0.00 0.00 0.00 54 1013.2
20260508085359 12 153 0.0 4.8 0.00 0.00 0.00 54 1013.2
20260508085159 12 153 1.6 4.8 0.00 0.00 0.00 54 1013.2
20260508084959 12 153 1.6 4.8 0.00 0.00 0.00 54 1013.2
20260508084758 12 153 1.6 4.8 0.00 0.00 0.00 54 1013.2
20260508084558 12 153 1.6 3.2 0.00 0.00 0.00 54 1013.1
20260508084359 12 153 0.0 3.2 0.00 0.00 0.00 54 1013.2
20260508084158 12 153 0.0 1.6 0.00 0.00 0.00 54 1013.2
20260508083959 12 153 0.0 0.0 0.00 0.00 0.00 54 1013.2
20260508083758 12 153 0.0 1.6 0.00 0.00 0.00 53 1013.2
20260508083558 12 153 0.0 1.6 0.00 0.00 0.00 53 1013.1
20260508083157 12 153 0.0 1.6 0.00 0.00 0.00 53 1013.1
20260508082558 12 153 0.0 3.2 0.00 0.00 0.00 53 1013.1
20260508082358 12 153 0.0 4.8 0.00 0.00 0.00 53 1013.2
20260508082158 12 153 0.0 4.8 0.00 0.00 0.00 53 1013.2
20260508081958 12 153 0.0 4.8 0.00 0.00 0.00 53 1013.2
20260508081759 12 153 1.6 4.8 0.00 0.00 0.00 53 1013.2
20260508081158 12 153 0.0 0.0 0.00 0.00 0.00 52 1013.2
20260508080959 13 153 0.0 0.0 0.00 0.00 0.00 51 1013.2
20260508080758 13 153 0.0 0.0 0.00 0.00 0.00 51 1013.2
20260508080557 13 153 0.0 0.0 0.00 0.00 0.00 51 1013.2
20260508080159 13 153 0.0 0.0 0.00 0.00 0.00 50 1013.2
20260508075958 13 153 0.0 0.0 0.00 0.00 0.00 50 1013.2
20260508075558 13 153 0.0 0.0 0.00 0.00 0.00 49 1013.1
20260508075358 13 153 0.0 0.0 0.00 0.00 0.00 50 1013.1
20260508075158 13 153 0.0 0.0 0.00 0.00 0.00 50 1013.1
20260508074958 13 153 0.0 0.0 0.00 0.00 0.00 50 1013.1
20260508074758 13 152 0.0 0.0 0.00 0.00 0.00 50 1013.1
20260508074600 13 153 0.0 0.0 0.00 0.00 0.00 50 1013.1
20260508074358 13 153 0.0 0.0 0.00 0.00 0.00 51 1013.1
20260508074158 13 153 0.0 1.6 0.00 0.00 0.00 51 1013.1
20260508073957 13 153 0.0 3.2 0.00 0.00 0.00 50 1013.1
20260508073759 13 153 0.0 4.8 0.00 0.00 0.00 51 1013.1
20260508073358 13 153 1.6 4.8 0.00 0.00 0.00 51 1013.1
20260508073158 13 153 1.6 4.8 0.00 0.00 0.00 52 1013.1
20260508072557 12 153 0.0 0.0 0.00 0.00 0.00 51 1013.1
20260508072358 12 153 0.0 0.0 0.00 0.00 0.00 52 1013.1
20260508072158 12 153 0.0 0.0 0.00 0.00 0.00 53 1013.1
20260508071958 12 153 0.0 0.0 0.00 0.00 0.00 53 1013.1
20260508071758 12 153 0.0 0.0 0.00 0.00 0.00 53 1013.1
20260508071558 12 153 0.0 0.0 0.00 0.00 0.00 52 1013.1
20260508071358 12 153 0.0 0.0 0.00 0.00 0.00 52 1013.1
20260508070958 12 153 0.0 0.0 0.00 0.00 0.00 53 1013.1
20260508070758 12 153 0.0 0.0 0.00 0.00 0.00 53 1013.1
20260508070559 12 153 0.0 0.0 0.00 0.00 0.00 52 1013.1
20260508070358 12 153 0.0 0.0 0.00 0.00 0.00 52 1013.1
20260508070157 12 153 0.0 0.0 0.00 0.00 0.00 52 1013.0
20260508070000 12 153 0.0 0.0 0.00 0.00 0.00 53 1013.0
20260508065800 12 153 0.0 0.0 0.00 0.00 0.00 53 1013.0
20260508065600 12 152 0.0 0.0 0.00 0.00 0.00 53 1013.0
20260508065400 13 152 0.0 0.0 0.00 0.00 0.00 53 1013.0
20260508065200 13 152 0.0 0.0 0.00 0.00 0.00 53 1013.0
20260508065000 13 153 0.0 0.0 0.00 0.00 0.00 53 1013.0
20260508064800 13 152 0.0 0.0 0.00 0.00 0.00 53 1013.1
20260508064601 13 153 0.0 0.0 0.00 0.00 0.00 53 1013.0
20260508064200 13 152 0.0 0.0 0.00 0.00 0.00 53 1013.0
20260508063800 13 152 0.0 0.0 0.00 0.00 0.00 52 1012.9
20260508063600 13 152 0.0 0.0 0.00 0.00 0.00 53 1012.9
20260508063400 13 152 0.0 0.0 0.00 0.00 0.00 52 1012.8
20260508063200 13 152 0.0 0.0 0.00 0.00 0.00 51 1012.8
20260508063000 13 152 0.0 0.0 0.00 0.00 0.00 51 1012.8
20260508062759 13 152 0.0 0.0 0.00 0.00 0.00 51 1012.8
20260508062600 13 152 0.0 0.0 0.00 0.00 0.00 51 1012.8
20260508062400 13 152 0.0 0.0 0.00 0.00 0.00 51 1012.7
20260508062001 13 152 0.0 0.0 0.00 0.00 0.00 50 1012.7
20260508061600 13 152 0.0 0.0 0.00 0.00 0.00 49 1012.8
20260508061359 13 152 0.0 0.0 0.00 0.00 0.00 49 1012.8
20260508061200 13 152 0.0 0.0 0.00 0.00 0.00 49 1012.7
20260508061000 13 152 0.0 0.0 0.00 0.00 0.00 48 1012.8
20260508060801 13 152 0.0 0.0 0.00 0.00 0.00 49 1012.8
20260508060600 13 152 0.0 0.0 0.00 0.00 0.00 50 1012.7
20260508060400 13 152 0.0 0.0 0.00 0.00 0.00 50 1012.7
20260508060200 13 152 0.0 0.0 0.00 0.00 0.00 50 1012.7
20260508060001 13 152 0.0 0.0 0.00 0.00 0.00 50 1012.7
20260508055800 13 152 0.0 0.0 0.00 0.00 0.00 51 1012.7
20260508055600 13 152 0.0 0.0 0.00 0.00 0.00 50 1012.6
20260508055400 13 152 0.0 0.0 0.00 0.00 0.00 50 1012.6
20260508055200 13 152 0.0 0.0 0.00 0.00 0.00 50 1012.7
20260508054801 14 152 0.0 0.0 0.00 0.00 0.00 49 1012.7
20260508054601 14 152 0.0 0.0 0.00 0.00 0.00 49 1012.6
20260508054400 14 152 0.0 0.0 0.00 0.00 0.00 49 1012.6
20260508054159 14 152 0.0 0.0 0.00 0.00 0.00 48 1012.7
20260508054000 15 152 0.0 0.0 0.00 0.00 0.00 48 1012.6
20260508053600 15 152 0.0 0.0 0.00 0.00 0.00 47 1012.6
20260508053400 15 152 0.0 0.0 0.00 0.00 0.00 46 1012.6
20260508052800 15 152 0.0 0.0 0.00 0.00 0.00 45 1012.6
20260508052600 15 152 0.0 0.0 0.00 0.00 0.00 45 1012.6
20260508052400 16 152 0.0 0.0 0.00 0.00 0.00 44 1012.6
20260508052201 16 152 0.0 0.0 0.00 0.00 0.00 43 1012.5
20260508051959 16 152 0.0 0.0 0.00 0.00 0.00 42 1012.5
20260508051800 16 152 0.0 0.0 0.00 0.00 0.00 42 1012.5
20260508051600 16 152 0.0 0.0 0.00 0.00 0.00 42 1012.5
20260508051200 16 152 0.0 0.0 0.00 0.00 0.00 42 1012.4
20260508051000 16 152 0.0 0.0 0.00 0.00 0.00 41 1012.5
20260508050801 16 152 0.0 0.0 0.00 0.00 0.00 41 1012.4
20260508050401 16 152 0.0 0.0 0.00 0.00 0.00 40 1012.4
20260508050201 16 152 0.0 0.0 0.00 0.00 0.00 40 1012.5
20260508045801 16 152 0.0 0.0 0.00 0.00 0.00 40 1012.4
20260508045600 16 152 0.0 3.2 0.00 0.00 0.00 40 1012.4
20260508045401 16 152 0.0 3.2 0.00 0.00 0.00 40 1012.3
20260508045202 16 152 0.0 4.8 0.00 0.00 0.00 40 1012.3
20260508044801 16 152 1.6 4.8 0.00 0.00 0.00 40 1012.3
20260508044601 16 152 1.6 4.8 0.00 0.00 0.00 40 1012.3
20260508044402 16 152 1.6 4.8 0.00 0.00 0.00 40 1012.3
20260508044201 16 152 1.6 4.8 0.00 0.00 0.00 40 1012.3
20260508044001 16 152 1.6 4.8 0.00 0.00 0.00 41 1012.3
20260508043801 16 152 1.6 4.8 0.00 0.00 0.00 41 1012.3
20260508043601 16 152 1.6 4.8 0.00 0.00 0.00 41 1012.3
20260508043401 16 152 1.6 3.2 0.00 0.00 0.00 41 1012.3
20260508043201 16 152 1.6 3.2 0.00 0.00 0.00 41 1012.3
20260508043002 16 152 0.0 0.0 0.00 0.00 0.00 41 1012.3
20260508042601 17 151 0.0 0.0 0.00 0.00 0.00 41 1012.3
20260508042402 17 151 0.0 0.0 0.00 0.00 0.00 41 1012.3
20260508042201 17 152 0.0 0.0 0.00 0.00 0.00 41 1012.3
20260508042002 17 151 0.0 0.0 0.00 0.00 0.00 41 1012.3
20260508041800 17 151 0.0 0.0 0.00 0.00 0.00 41 1012.3
20260508041601 17 152 0.0 0.0 0.00 0.00 0.00 41 1012.3
20260508041401 17 151 0.0 0.0 0.00 0.00 0.00 41 1012.3
20260508041201 17 152 0.0 0.0 0.00 0.00 0.00 40 1012.3
20260508041001 17 152 0.0 0.0 0.00 0.00 0.00 41 1012.3
20260508040801 17 152 0.0 0.0 0.00 0.00 0.00 41 1012.3
20260508040402 17 151 0.0 3.2 0.00 0.00 0.00 41 1012.2
20260508040201 17 152 0.0 4.8 0.00 0.00 0.00 41 1012.2
20260508035559 17 152 1.6 8.0 0.00 0.00 0.00 42 1012.1
20260508035359 17 152 1.6 8.0 0.00 0.00 0.00 42 1012.1
20260508035000 17 152 1.6 4.8 0.00 0.00 0.00 42 1012.1
20260508034800 17 152 1.6 4.8 0.00 0.00 0.00 42 1012.2
20260508034601 17 190 0.0 0.0 0.00 0.00 0.00 42 1012.2
20260508034400 17 190 0.0 0.0 0.00 0.00 0.00 42 1012.1
20260508034200 17 190 0.0 0.0 0.00 0.00 0.00 42 1012.1
20260508034000 17 190 0.0 0.0 0.00 0.00 0.00 41 1012.1
20260508033800 17 190 0.0 0.0 0.00 0.00 0.00 42 1012.1
20260508033600 17 190 0.0 0.0 0.00 0.00 0.00 42 1012.0
20260508033201 17 190 0.0 0.0 0.00 0.00 0.00 41 1012.0
20260508032800 17 190 0.0 0.0 0.00 0.00 0.00 40 1012.0
20260508032559 17 190 0.0 0.0 0.00 0.00 0.00 40 1012.0
20260508032400 17 190 0.0 0.0 0.00 0.00 0.00 40 1012.0
20260508032159 17 190 0.0 0.0 0.00 0.00 0.00 40 1011.9
20260508032000 17 190 0.0 0.0 0.00 0.00 0.00 40 1011.9
20260508031800 17 190 0.0 0.0 0.00 0.00 0.00 40 1012.0
20260508031400 18 190 0.0 0.0 0.00 0.00 0.00 39 1011.9
20260508031000 18 190 0.0 0.0 0.00 0.00 0.00 40 1011.8
20260508030801 18 190 0.0 0.0 0.00 0.00 0.00 40 1011.9
20260508030601 18 190 0.0 0.0 0.00 0.00 0.00 39 1011.8
20260508030200 18 190 0.0 0.0 0.00 0.00 0.00 38 1011.8
20260508030003 18 190 0.0 0.0 0.00 0.00 0.00 38 1011.8
20260508025800 18 190 0.0 0.0 0.00 0.00 0.00 38 1011.7
20260508025600 19 190 0.0 0.0 0.00 0.00 0.00 37 1011.7
20260508025359 19 190 0.0 0.0 0.00 0.00 0.00 37 1011.7
20260508025200 19 190 0.0 0.0 0.00 0.00 0.00 37 1011.7
20260508024801 20 190 0.0 0.0 0.00 0.00 0.00 36 1011.7
20260508024559 20 190 0.0 0.0 0.00 0.00 0.00 35 1011.7
20260508024400 20 190 0.0 0.0 0.00 0.00 0.00 35 1011.7
20260508024200 20 190 0.0 0.0 0.00 0.00 0.00 33 1011.7
20260508024001 20 190 0.0 0.0 0.00 0.00 0.00 34 1011.7
20260508023800 20 190 0.0 0.0 0.00 0.00 0.00 34 1011.7
20260508023559 21 190 0.0 0.0 0.00 0.00 0.00 33 1011.7
20260508023400 21 190 0.0 0.0 0.00 0.00 0.00 33 1011.6
20260508023001 21 190 0.0 0.0 0.00 0.00 0.00 32 1011.6
20260508022159 21 360 0.0 1.6 0.00 0.00 0.00 30 1011.6
20260508022000 21 360 0.0 1.6 0.00 0.00 0.00 30 1011.6
20260508021800 22 360 0.0 1.6 0.00 0.00 0.00 30 1011.6
20260508021601 22 360 0.0 1.6 0.00 0.00 0.00 30 1011.5
20260508021359 22 360 0.0 0.0 0.00 0.00 0.00 29 1011.6
20260508021200 22 203 0.0 0.0 0.00 0.00 0.00 29 1011.6
20260508021000 22 202 0.0 0.0 0.00 0.00 0.00 28 1011.6
20260508020801 22 202 0.0 0.0 0.00 0.00 0.00 30 1011.6
20260508020600 22 202 0.0 0.0 0.00 0.00 0.00 29 1011.6
20260508020359 23 192 0.0 0.0 0.00 0.00 0.00 29 1011.6
20260508020201 23 190 0.0 0.0 0.00 0.00 0.00 29 1011.6
20260508020004 23 189 0.0 1.6 0.00 0.00 0.00 29 1011.5
20260508015800 23 189 0.0 3.2 0.00 0.00 0.00 28 1011.5
20260508015600 23 188 0.0 3.2 0.00 0.00 0.00 28 1011.5
20260508015400 23 188 0.0 4.8 0.00 0.00 0.00 27 1011.4
20260508015200 23 188 0.0 4.8 0.00 0.00 0.00 27 1011.5
20260508015000 23 188 1.6 4.8 0.00 0.00 0.00 27 1011.5
20260508014800 23 188 1.6 4.8 0.00 0.00 0.00 27 1011.5
20260508014600 23 188 1.6 4.8 0.00 0.00 0.00 27 1011.5
20260508014400 23 188 1.6 3.2 0.00 0.00 0.00 27 1011.6
20260508014201 23 188 1.6 3.2 0.00 0.00 0.00 27 1011.6
20260508014000 23 188 1.6 4.8 0.00 0.00 0.00 27 1011.6
20260508013800 23 188 1.6 4.8 0.00 0.00 0.00 27 1011.5
20260508013600 23 188 1.6 4.8 0.00 0.00 0.00 26 1011.5
20260508013400 23 188 1.6 4.8 0.00 0.00 0.00 27 1011.5
20260508013200 23 188 3.2 4.8 0.00 0.00 0.00 26 1011.5
20260508012600 23 188 0.0 0.0 0.00 0.00 0.00 26 1011.5
20260508012200 23 188 0.0 0.0 0.00 0.00 0.00 26 1011.6
20260508011800 23 188 0.0 0.0 0.00 0.00 0.00 26 1011.7
20260508011600 23 188 0.0 3.2 0.00 0.00 0.00 27 1011.7
20260508011359 23 188 0.0 4.8 0.00 0.00 0.00 26 1011.7
20260508011203 23 188 0.0 6.4 0.00 0.00 0.00 26 1011.7
20260508011001 23 188 0.0 6.4 0.00 0.00 0.00 27 1011.7
20260508010759 23 188 1.6 6.4 0.00 0.00 0.00 26 1011.7
20260508010600 23 188 3.2 6.4 0.00 0.00 0.00 25 1011.7
20260508010400 24 188 3.2 8.0 0.00 0.00 0.00 25 1011.8
20260508010200 24 188 1.6 8.0 0.00 0.00 0.00 25 1011.8
20260508010002 24 188 3.2 8.0 0.00 0.00 0.00 25 1011.8
20260508005800 24 188 4.8 8.0 0.00 0.00 0.00 26 1011.8
20260508005559 25 204 4.8 8.0 0.00 0.00 0.00 26 1011.8
20260508005400 25 195 3.2 6.4 0.00 0.00 0.00 26 1011.8
20260508005200 25 294 1.6 6.4 0.00 0.00 0.00 25 1011.8
20260508004801 25 295 0.0 6.4 0.00 0.00 0.00 26 1011.8
20260508004359 24 295 1.6 6.4 0.00 0.00 0.00 25 1011.7
20260508004200 25 295 4.8 8.0 0.00 0.00 0.00 25 1011.7
20260508004000 25 289 1.6 8.0 0.00 0.00 0.00 26 1011.7
20260508003600 24 312 4.8 8.0 0.00 0.00 0.00 25 1011.7
20260508003400 24 90 0.0 3.2 0.00 0.00 0.00 25 1011.7
20260508003200 24 90 0.0 6.4 0.00 0.00 0.00 25 1011.7
20260508002800 23 90 0.0 6.4 0.00 0.00 0.00 25 1011.7
20260508002559 23 90 1.6 6.4 0.00 0.00 0.00 26 1011.7
20260508002400 23 90 3.2 6.4 0.00 0.00 0.00 26 1011.7
20260508002200 24 90 4.8 6.4 0.00 0.00 0.00 25 1011.7
20260508001600 23 104 1.6 6.4 0.00 0.00 0.00 26 1011.8
20260508001200 23 104 4.8 6.4 0.00 0.00 0.00 26 1011.9
20260508001001 23 92 1.6 4.8 0.00 0.00 0.00 27 1011.9
20260508000800 23 92 1.6 4.8 0.00 0.00 0.00 26 1012.0
20260508000559 23 92 1.6 8.0 0.00 0.00 0.00 27 1012.0
20260508000400 23 92 3.2 8.0 0.00 0.00 0.00 27 1012.0
20260508000159 23 150 1.6 8.0 0.00 0.00 0.00 25 1012.1
20260508000000 23 150 3.2 8.0 0.00 0.00 0.00 26 1012.1
20260507235800 23 162 3.2 4.8 0.00 0.00 0.00 27 1012.0
20260507235600 23 173 3.2 4.8 0.00 0.00 0.00 26 1012.1
20260507235400 23 173 0.0 8.0 0.00 0.00 0.00 26 1012.1
20260507235200 23 79 1.6 8.0 0.00 0.00 0.00 26 1012.2
20260507235000 23 79 1.6 8.0 0.00 0.00 0.00 27 1012.2
20260507234801 23 79 4.8 8.0 0.00 0.00 0.00 26 1012.2
20260507234600 23 79 3.2 8.0 0.00 0.00 0.00 27 1012.2
20260507234400 23 91 3.2 9.7 0.00 0.00 0.00 26 1012.2
20260507234200 23 137 3.2 4.8 0.00 0.00 0.00 27 1012.3
20260507234000 24 137 3.2 4.8 0.00 0.00 0.00 27 1012.3
20260507233600 23 30 1.6 4.8 0.00 0.00 0.00 27 1012.4
20260507233200 23 333 0.0 4.8 0.00 0.00 0.00 27 1012.4
20260507233000 23 333 1.6 6.4 0.00 0.00 0.00 26 1012.4
20260507232800 23 322 1.6 6.4 0.00 0.00 0.00 26 1012.4
20260507232600 23 322 1.6 6.4 0.00 0.00 0.00 27 1012.4
20260507232400 23 322 3.2 6.4 0.00 0.00 0.00 27 1012.4
20260507232159 23 321 3.2 6.4 0.00 0.00 0.00 27 1012.4
20260507231600 23 333 0.0 4.8 0.00 0.00 0.00 27 1012.5
20260507231400 23 333 0.0 4.8 0.00 0.00 0.00 26 1012.5
20260507231201 23 333 1.6 4.8 0.00 0.00 0.00 25 1012.6
20260507231000 23 333 1.6 8.0 0.00 0.00 0.00 26 1012.6
20260507230800 23 333 1.6 8.0 0.00 0.00 0.00 26 1012.6
20260507230600 23 333 1.6 8.0 0.00 0.00 0.00 27 1012.6
20260507230400 23 333 1.6 8.0 0.00 0.00 0.00 27 1012.7
20260507230200 23 340 3.2 8.0 0.00 0.00 0.00 26 1012.7
20260507230001 23 317 4.8 8.0 0.00 0.00 0.00 26 1012.8
20260507225759 23 24 0.0 4.8 0.00 0.00 0.00 26 1012.8
20260507225600 23 24 1.6 4.8 0.00 0.00 0.00 26 1012.8
20260507225401 23 355 0.0 4.8 0.00 0.00 0.00 26 1013.0
20260507225000 23 338 1.6 4.8 0.00 0.00 0.00 27 1013.0
20260507224600 22 338 1.6 4.8 0.00 0.00 0.00 27 1013.2
20260507224400 22 338 1.6 4.8 0.00 0.00 0.00 28 1013.2
20260507224200 22 338 0.0 4.8 0.00 0.00 0.00 28 1013.2
20260507224000 22 338 1.6 6.4 0.00 0.00 0.00 26 1013.2
20260507223800 22 336 1.6 6.4 0.00 0.00 0.00 27 1013.2
20260507223401 23 336 3.2 6.4 0.00 0.00 0.00 26 1013.3
20260507223000 23 313 1.6 6.4 0.00 0.00 0.00 27 1013.3
20260507222800 23 313 3.2 6.4 0.00 0.00 0.00 28 1013.4
20260507222559 22 310 1.6 4.8 0.00 0.00 0.00 27 1013.5
20260507222400 22 310 3.2 4.8 0.00 0.00 0.00 27 1013.5
20260507222200 22 310 1.6 4.8 0.00 0.00 0.00 28 1013.5
20260507222000 22 296 0.0 4.8 0.00 0.00 0.00 28 1013.5
20260507221800 22 296 1.6 4.8 0.00 0.00 0.00 27 1013.5
20260507221600 22 296 1.6 9.7 0.00 0.00 0.00 29 1013.6
20260507221200 22 296 3.2 9.7 0.00 0.00 0.00 30 1013.6
20260507221000 22 296 3.2 9.7 0.00 0.00 0.00 28 1013.6
20260507220800 22 293 1.6 8.0 0.00 0.00 0.00 29 1013.6
20260507220400 22 293 3.2 6.4 0.00 0.00 0.00 28 1013.7
20260507220000 22 288 3.2 6.4 0.00 0.00 0.00 27 1013.7
20260507215759 22 255 1.6 6.4 0.00 0.00 0.00 27 1013.7
20260507215559 22 243 1.6 6.4 0.00 0.00 0.00 27 1013.7
20260507215359 22 241 1.6 6.4 0.00 0.00 0.00 27 1013.7
20260507215159 22 280 3.2 9.7 0.00 0.00 0.00 27 1013.7
20260507214959 22 272 4.8 9.7 0.00 0.00 0.00 26 1013.8
20260507214801 22 243 1.6 9.7 0.00 0.00 0.00 27 1013.8
20260507214559 22 243 1.6 9.7 0.00 0.00 0.00 26 1013.8
20260507214359 22 275 4.8 12.9 0.00 0.00 0.00 26 1013.8
20260507214159 23 205 3.2 12.9 0.00 0.00 0.00 26 1013.8
20260507213959 23 280 4.8 12.9 0.00 0.00 0.00 27 1013.8